Terminal Aerodrome Forecast
Issued by NWS Jackson, MS

Home | Current Version | Previous Version | Text Only | Print | Product List | Glossary On
Versions: 1 2 3 4 5 6 7 8 9 10 11 12 13 14 15
000
FTUS44 KJAN 241350 AAB
TAFHBG
TAF AMD
KHBG 241350Z 2414/2512 11005KT P6SM VCSH FEW005 OVC011
     FM241600 15015G22KT P6SM VCSH BKN025
     FM241800 15016G23KT P6SM VCTS SCT035CB BKN100
     FM250000 15009KT P6SM SCT035 OVC100
     FM250400 14007KT P6SM BKN025
     FM250600 15006KT P6SM OVC015
     FM250700 14005KT 4SM BR OVC007=

USA.gov is the U.S. government's official web portal to all federal, state and local government web resources and services.